Location: Peyton Hall Observatory
(40.3466°N, 74.6516°W)
Time: 20:20:06
(UTC-04:00)

ISS - All Passes

Search period start: 24 July 2016 00:00
Search period end: 03 August 2016 00:00
Orbit: 401 x 404 km, 51.6° (Epoch: 24 July)

Date Brightness Start Highest point End Pass type
(mag) Time Alt. Az. Time Alt. Az. Time Alt. Az.
24 Jul - 00:09:22 10° W 00:12:14 28° NNW 00:15:07 10° NE visible
24 Jul - 01:48:06 10° NNW 01:49:30 12° N 01:50:54 10° NNE visible
24 Jul - 03:25:05 10° NNW 03:27:01 15° NNE 03:28:56 10° NE visible
24 Jul - 05:00:51 10° NW 05:04:02 50° NNE 05:07:13 10° ESE visible
24 Jul - 06:37:59 10° W 06:40:12 17° SW 06:42:24 10° S daylight
24 Jul - 21:40:38 10° S 21:43:00 19° SE 21:45:22 10° E night (unlit)
24 Jul - 23:16:03 10° WSW 23:19:12 46° NNW 23:22:22 10° NE night (unlit)
25 Jul - 00:54:25 10° NW 00:56:15 14° NNW 00:58:06 10° NNE visible
25 Jul - 02:32:19 10° NNW 02:33:46 12° N 02:35:14 10° NE visible
25 Jul - 04:08:05 10° NW 04:11:01 30° NNE 04:13:56 10° E visible
25 Jul - 05:44:29 10° WNW 05:47:27 33° SW 05:50:24 10° SSE daylight
25 Jul - 22:23:00 10° SW 22:26:14 88° NW 22:29:30 10° NE visible
26 Jul - 00:00:43 10° WNW 00:03:04 18° NNW 00:05:24 10° NNE visible
26 Jul - 01:39:20 10° NNW 01:40:30 11° N 01:41:42 10° NNE visible
26 Jul - 03:15:22 10° NNW 03:17:55 20° NNE 03:20:27 10° ENE visible
26 Jul - 04:51:22 10° WNW 04:54:37 69° SW 04:57:50 10° SE visible
26 Jul - 21:30:15 10° SSW 21:33:21 45° SE 21:36:30 10° ENE visible
26 Jul - 23:07:09 10° W 23:09:56 25° NNW 23:12:42 10° NNE visible
27 Jul - 00:45:56 10° NNW 00:47:14 12° N 00:48:32 10° NNE visible
27 Jul - 02:22:40 10° NNW 02:24:44 15° NNE 02:26:47 10° NE visible
27 Jul - 03:58:27 10° NW 04:01:41 60° NE 04:04:54 10° ESE visible
27 Jul - 05:35:57 10° W 05:37:46 14° SW 05:39:35 10° SSW daylight
27 Jul - 20:37:58 10° S 20:40:34 22° SE 20:43:11 10° E daylight
27 Jul - 22:13:46 10° WSW 22:16:51 39° NNW 22:19:57 10° NE visible
27 Jul - 23:52:16 10° NW 23:53:58 13° NNW 23:55:41 10° NNE visible
28 Jul - 01:29:56 10° NNW 01:31:30 13° N 01:33:04 10° NE visible
28 Jul - 03:05:39 10° NW 03:08:41 34° NNE 03:11:41 10° E visible
28 Jul - 04:42:13 10° WNW 04:45:02 27° SW 04:47:51 10° SSE visible
28 Jul - 19:46:41 10° SSE 19:47:51 12° SE 19:49:03 10° ESE daylight
28 Jul - 21:20:37 10° WSW 21:23:52 73° NW 21:27:07 10° NE visible
28 Jul - 22:58:33 10° WNW 23:00:45 17° NNW 23:02:57 10° NNE visible
29 Jul - 00:37:01 10° NNW 00:38:13 12° N 00:39:27 10° NNE visible
29 Jul - 02:12:56 10° NNW 02:15:35 22° NNE 02:18:15 10° ENE visible
29 Jul - 03:49:01 10° WNW 03:52:13 56° SW 03:55:24 10° SE visible
29 Jul - 20:27:47 10° SW 20:30:57 55° SE 20:34:09 10° ENE daylight
29 Jul - 22:04:56 10° WNW 22:07:35 22° NNW 22:10:15 10° NNE visible
29 Jul - 23:43:43 10° NNW 23:44:57 12° N 23:46:10 10° NNE visible
30 Jul - 01:20:13 10° NNW 01:22:25 17° NNE 01:24:37 10° ENE visible
30 Jul - 02:56:03 10° NW 02:59:18 72° NE 03:02:33 10° ESE night (unlit)
30 Jul - 04:34:06 10° WSW 04:35:19 12° SW 04:36:32 10° SSW night (unlit)
30 Jul - 19:35:20 10° SSW 19:38:08 27° SE 19:40:57 10° ENE daylight
30 Jul - 21:11:28 10° W 21:14:29 34° NNW 21:17:31 10° NE visible
30 Jul - 22:50:05 10° NW 22:51:40 13° N 22:53:15 10° NNE visible
31 Jul - 00:27:29 10° NNW 00:29:11 13° N 00:30:53 10° NE visible
31 Jul - 02:03:13 10° NW 02:06:19 39° NNE 02:09:24 10° ESE night (unlit)
31 Jul - 03:39:57 10° W 03:42:36 23° SW 03:45:13 10° S night (unlit)
31 Jul - 18:43:36 10° SSE 18:45:23 14° SE 18:47:11 10° E daylight
31 Jul - 20:18:14 10° WSW 20:21:28 61° NW 20:24:42 10° NE daylight
31 Jul - 21:56:21 10° NW 21:58:25 16° NNW 22:00:29 10° NNE visible
31 Jul - 23:34:38 10° NNW 23:35:55 12° N 23:37:13 10° NNE visible
01 Aug - 01:10:28 10° NNW 01:13:14 25° NNE 01:16:00 10° E visible
01 Aug - 02:46:39 10° WNW 02:49:48 45° SW 02:52:54 10° SSE night (unlit)
01 Aug - 19:25:18 10° SW 19:28:32 68° SE 19:31:46 10° ENE daylight
01 Aug - 21:02:41 10° WNW 21:05:14 20° NNW 21:07:47 10° NNE visible
01 Aug - 22:41:26 10° NNW 22:42:37 11° N 22:43:48 10° NNE visible
02 Aug - 00:17:44 10° NNW 00:20:04 18° NNE 00:22:24 10° ENE visible
02 Aug - 01:53:37 10° NW 01:56:54 87° NE 02:00:09 10° SE night (unlit)
02 Aug - 18:32:43 10° SSW 18:35:40 33° SE 18:38:38 10° ENE daylight
02 Aug - 20:09:10 10° W 20:12:06 30° NNW 20:15:02 10° NE daylight
02 Aug - 21:47:52 10° NW 21:49:20 12° N 21:50:48 10° NNE visible
02 Aug - 23:25:01 10° NNW 23:26:51 14° NNE 23:28:42 10° NE visible
